Weather in Svetly

Russia / Orenburg Oblast     50°49′20″N   60°51′22″E
temp.,
°C
wind,
m/s
gust,
m/s
humid.,
%
clouds,
%
prec.,
mm/h
press.,
hPa
HPBL,
m
1 march, mon
mon123:00−6wsw6119485 0.8 1008302
02:00−12w6109495 0.0 1010250
05:00−11wnw699397 0.1 1012269
08:00−13wnw5895100 0.1 1014238
11:00−12wnw4693100 0.4 1016247
14:00−11w459397 0.2 1017259
17:00−13wnw359492 0.2 1018107
20:00−15w459684 0.1 101999
2 march, tue
tue223:00−17w449580 0.1 102060
02:00−17w469692 0.1 1019134
05:00−17w5109585 0.1 1019235
08:00−19w5119671 0.0 1019232
11:00−17w699265 0.0 1020318
14:00−16wsw7109162 0.0 1019363
17:00−16wsw6129056 0.0 1019357
20:00−16sw6129232 0.0 1018303
3 march, wed
wed323:00−14sw7149261 0.0 1017347
02:00−10sw8169299 0.0 1014466
05:00−7sw9169399 0.3 1013576
08:00−5sw101694100 0.7 1010731
11:00−4sw111694100 1.5 1010839
14:00−2sw101495100 1.1 1009927
17:00−2sw101595100 2.3 1008982
20:00−2sw81496100 1.0 1006771
4 march, thu
thu423:00−1sw81396100 1.9 1006690
02:00−2sw71294100 0.7 1004561
05:00−4sw6129499 0.9 1004394
08:00−3wsw51095100 0.4 1004421
11:00−5wnw71190100 0.6 1006548
14:00−7wnw7128876 0.0 1009561
17:00−7w7138873 0.0 1011585
20:00−10w6149169 0.0 1014350
5 march, fri
fri523:00−12w6129134 0.0 1017256
02:00−12wsw7169219 0.0 1017360
05:00−9sw9169251 0.0 1017564
08:00−7sw101890100 0.1 1016747
11:00−4sw121986100 0.1 1016876
14:00−3sw122082100 0.0 1016945
17:00−2sw121981100 0.0 1017930
20:00−4wsw91885100 0.0 1017780